Location: Asheville, NC
(35.6000°N, 82.5500°W)
Time: 23:50:47
(UTC-04:00)

CUTE 1.7 + AOD 2 - Pass Details

Date: 06 January 2018
Orbit: 595 x 612 km, 97.6° (Epoch: 20 April)

Event Time Altitude Azimuth Distance (km) Brightness Sun altitude
Rises 19:07:10 0° 181° (S) 2,857 ? -18.8°
Reaches altitude 10° 19:09:25 10° 187° (S) 1,958 ? -19.3°
Maximum altitude 19:13:30 46° 261° (W) 829 ? -20.1°
Drops below altitude 10° 19:17:37 10° 335° (NNW) 1,970 ? -20.9°
Sets 19:19:53 0° 341° (NNW) 2,878 ? -21.3°
